NIGCOMSAT 1R

Last updated on Mon Oct 14 2024 00:02:39 GMT+0000 (Coordinated Universal Time)

1 38014U 11077A 24287.20045703 .00000143 00000+0 00000+0 0 9992 2 38014 0.0150 28.8567 0002628 256.7182 211.3545 1.00270632 46821
UTC large
Height (km)
Speed (km/s)
/
Latitude / Longitude
Inclination (degrees)
Orbital Period (minutes)
Azimuth
Elevation
Range (km)
Doppler Factor

Next 0 passes for location: London (51.5072 / 0.1276)

Sorry there are no passes over London.